Location: Zagreb
(45.8000°N, 16.0000°E)
Time: 07:34:02
(UTC+02:00)

Courier 1B Rocket - Pass Details

Date: 16 August 2022
Orbit: 920 x 1202 km, 28.2° (Epoch: 25 September)

Event Time Altitude Azimuth Distance (km) Brightness Sun altitude
Rises 15:14:16 0° 215° (SW) 3,581 8.6 47.2°
Reaches altitude 10° 15:19:09 10° 182° (S) 2,608 7.8 46.5°
Maximum altitude 15:20:53 11° 166° (SSE) 2,518 7.5 46.3°
Drops below altitude 10° 15:22:37 10° 149° (SSE) 2,601 7.4 46.1°
Sets 15:27:27 0° 116° (ESE) 3,555 7.7 45.4°
